Retour au catalogue

OPS 5960

ActifNavigationMEO
NORAD 4630·PAYLOAD·🇺🇸 United States

Lancé Nov 6, 1970 depuis Cape Canaveral Space Force Station

Loading…

Prochains Passages (prochaines 24 heures)

TLE

FraisSource: Space-Track

Époque: Sep 14, 2026, 00:00 UTC

1 04630U 70093A   26257.00062559 -.00000162  00000-0  00000-0 0  9991
2 04630  15.2567  34.5448 1359566 281.4234  47.9784  1.20217156244901

Suivez OPS 5960 en temps réel avec AllMySat

Download on the App Store